sat.trackr.live / text

‹ back to catalog

STARLINK-11333 [DTC]

NORAD 62273 · 2024-237G

PAYLOAD ACTIVE UNKNOWN

§ Identity

Operator
Country
US
Launch date
2024-12-08
Launch site
AFETR
Launch vehicle
Mass (kg)
RCS (m²)

Purposes: comms

External: N2YO · Heavens-Above · Gunter

§ Orbital elements

Epoch: 2026-05-24T21:36:42.327360Z

Period
91.67 min
Inclination
42.9987°
Eccentricity
0.0001703
Mean motion
15.70886581 rev/d
Perigee alt
355.2 km
Apogee alt
357.5 km
Semi-major
6,734.5 km
B*
1.2588e-3
RAAN
317.6485°
Arg perigee
237.6412°
Mean anomaly
122.4291°
Rev number
8,503

§ Raw data

STARLINK-11333 [DTC]1 62273U 24237G   26144.90048990  .00164635  00000+0  12588-2 0  99942 62273  42.9987 317.6485 0001703 237.6412 122.4291 15.70886581 85037

JSON: /api/v1/satellites/62273 · /tle

For live sub-satellite position, see the globe view (requires WebGL).

§ Visibility from observer

Set your observer location to see the next 7 days of passes ≥ 10°. The values pass through the URL so the page stays shareable.

No JS? Fill the form by hand. The geolocation button needs JavaScript.